Presure
156 136 218 118 150 128 126 110 151 148 154 132 124 143 129 139 127 145 121 128 125 128 125 129 107 130 106 135 130 118 100 104 102 128 129 132 130 118 89 133 106 142 114 109 112 105 136 107 133
108 120 120 124 149 122 135 138 156 143 135 156 154 135 145 131 115 118 133 128 123 136 121 132 98 103 126 138 116 108 119 124 87 130 138 139 139 146 119 138 121 137 108 117 138 117 96 141 123
183 326 287 188 120 226 123 161 134 104 133 109 111 138 136 137 129 129 101 132 120 127 122 111 141 107 135 85 125 98 125 126 133 139 144 148 143 143 132 146 150 119 147 118 113 137 106 111 115
222 121 311 298 127 237 93 142 127 140 132 168 141 156 144 117 133 125 117 141 123 131 128 117 119 140 126 96 141 125 114 131 138 158 84 150 123 121 115 153 125 104 125 108 128 111 124 123 126
284 126 258 250 134 253 189 135 130 126 132 135 133 128 146 136 138 140 136 123 120 121 110 132 101 134 124 128 120 140 143 132 150 130 89 132 117 135 121 132 119 111 106 141 126 125 120 115 116
190 282 117 195 290 313 160 132 142 113 280 127 146 146 181 146 109 129 105 119 137 126 118 120 125 120 129 143 148 101 148 117 126 85 151 127 118 117 122 123 124 119 118 132 134 123 124 142 201
284 271 169 263 127 311 276 150 143 123 117 130 127 146 148 178 87 136 131 129 122 132 138 135 118 106 115 121 98 124 120 117 135 119 121 141 118 118 141 130 131 117 124 140 130 134 131 238 215
276 262 268 182 269 283 308 193 275 131 138 129 136 149 131 140 144 128 134 120 127 124 137 143 139 122 119 129 124 111 106 140 126 122 129 122 135 123 126 132 132 120 149 155 126 228 203 207 195
277 181 269 261 272 216 132 306 249 255 191 156 170 137 135 158 151 134 139 130 129 135 127 128 124 132 126 123 111 124 116 127 109 122 118 124 130 130 131 144 132 132 133 130 208 207 206 195 194
267 253 112 123 258 195 127 147 278 204 117 258 152 158 138 148 142 146 157 134 140 143 139 115 136 123 108 117 123 116 119 125 136 124 123 125 126 131 142 164 170 206 194 203 194 193 191 198 200
262 261 265 118 254 294 122 137 151 252 221 153 144 145 232 144 142 147 157 143 138 113 118 141 125 116 118 113 114 129 116 119 122 130 125 125 126 119 190 188 161 192 199 188 197 200 180 199 192
263 252 206 121 241 144 149 139 246 139 128 133 140 153 149 137 241 200 145 153 149 134 112 120 124 111 110 110 112 119 112 119 118 123 126 124 127 140 207 200 203 209 207 187 209 199 192 201 203
251 247 116 121 232 147 119 143 144 187 255 130 147 184 238 168 134 147 133 113 135 130 125 129 111 181 149 134 121 117 114 119 121 135 121 155 156 183 169 207 197 213 197 201 198 187 212 211 192
246 241 244 229 198 227 234 225 141 218 259 166 140 143 149 149 157 115 158 166 120 126 120 140 114 115 125 142 124 118 120 123 127 124 131 136 201 213 200 206 203 200 193 203 190 185 189 188 192
237 234 242 216 230 228 196 235 127 242 151 143 151 150 151 215 212 118 117 112 136 120 112 110 118 111 126 120 119 122 125 128 134 201 216 217 202 195 213 195 184 199 194 190 182 189 193 192 192
240 242 185 228 232 233 201 246 239 229 219 203 136 215 146 136 117 123 116 168 111 114 114 119 111 117 119 123 123 124 127 132 203 202 212 210 198 209 191 204 184 188 186 186 194 192 181 182 183
242 230 238 232 227 230 237 243 220 223 190 226 188 181 206 182 120 117 155 112 120 119 122 120 121 125 126 130 133 178 166 192 199 198 199 191 184 201 193 190 193 189 195 189 183 185 193 210 215
246 238 190 215 226 218 227 216 246 194 222 218 208 116 128 123 121 132 125 125 121 136 124 128 125 117 132 143 203 191 191 191 202 158 168 123 193 193 196 192 193 194 197 224 221 216 210 206 211
232 223 109 230 235 218 223 205 230 204 210 115 139 126 118 120 116 119 125 131 131 127 119 122 130 123 134 195 198 196 190 207 112 148 120 194 187 196 211 215 219 223 207 208 207 215 219 212 209
230 235 145 230 112 116 215 203 116 168 123 111 124 117 118 119 123 130 138 194 147 130 135 133 170 211 205 204 203 217 221 139 124 199 211 211 220 222 217 211 210 212 217 223 213 206 192 191 210
241 234 145 174 219 171 145 113 134 138 193 181 119 216 172 178 135 156 151 127 133 134 223 220 220 222 225 234 233 238 133 228 229 219 215 216 207 206 207 216 223 217 206 199 195 191 201 212 205
238 225 224 224 225 200 215 222 118 213 221 216 212 172 134 225 154 164 217 228 209 237 225 226 226 226 229 222 222 217 221 215 214 213 207 210 214 221 222 200 195 199 195 199 209 202 198 195 202
236 233 230 227 225 229 227 228 219 223 220 219 223 232 224 222 213 213 221 219 219 229 232 234 233 216 218 215 214 213 211 203 208 215 216 220 211 196 195 197 201 197 203 200 199 216 217 202 200
229 229 232 232 222 222 226 228 229 224 222 218 218 217 217 211 214 221 214 220 221 211 206 209 207 204 220 210 207 210 202 209 217 204 195 202 193 187 200 193 194 196 195 206 210 205 197 198 194
237 230 230 227 218 224 222 220 223 218 218 216 208 212 215 219 224 214 219 217 197 208 202 198 202 216 209 217 209 217 210 184 192 197 194 184 193 194 187 194 212 217 210 206 202 198 199 204 204
237 230 227 222 226 222 220 218 213 210 213 210 208 210 210 210 219 207 211 198 212 199 203 196 217 215 219 198 194 194 190 197 191 188 188 187 185 207 203 215 209 201 196 198 202 204 207 243 229
240 234 228 225 216 216 213 208 206 209 214 226 225 215 213 126 197 202 121 205 217 210 210 212 195 217 196 194 194 203 193 191 191 187 183 201 204 214 185 199 197 198 187 201 210 217 233 222 217
212 207 219 225 226 226 223 219 223 222 219 219 202 200 203 206 153 158 164 163 230 211 220 202 200 199 194 205 196 191 191 190 189 193 203 222 205 200 197 198 199 197 206 211 222 236 224 211 219
211 212 214 211 209 213 209 203 207 203 203 206 199 208 209 216 222 215 229 226 212 206 195 196 194 200 200 191 192 194 189 192 200 204 197 195 193 200 196 195 206 206 211 222 231 217 213 224 238
207 214 209 218 220 211 206 206 207 199 204 204 205 212 212 216 211 230 219 209 204 200 203 205 196 195 194 197 184 190 199 206 200 195 190 199 194 191 196 206 211 214 220 234 213 214 245 236 255
Wind_Speed
63 60 62 61 66 62 65 49 73 65 68 62 53 64 55 60 50 62 52 62 56 57 52 56 44 57 44 61 58 43 34 34 36 56 57 61 58 44 37 58 49 65 52 53 52 56 70 65 70
42 57 63 62 69 65 67 65 71 66 58 64 66 62 63 55 42 45 58 57 54 63 56 60 36 40 46 59 44 39 48 46 27 57 66 64 67 69 43 65 48 64 55 51 64 56 56 72 68
50 32 46 49 54 65 45 74 61 41 61 51 48 62 62 65 58 59 37 60 53 64 54 48 69 37 62 29 54 38 53 52 56 62 66 67 65 63 53 71 72 51 71 62 58 64 70 70 73
50 54 36 46 51 61 39 71 55 48 61 78 67 71 72 45 65 54 45 67 55 59 59 52 56 71 46 23 61 53 43 47 58 74 29 69 46 46 51 78 50 55 52 62 65 68 61 68 69
30 32 34 37 53 43 63 59 59 47 61 66 58 48 73 66 62 63 63 55 56 55 46 69 35 54 45 51 48 62 64 59 71 53 38 53 49 66 52 56 54 60 60 74 63 61 66 73 75
28 29 37 35 34 30 43 55 69 44 43 57 68 62 77 60 50 56 46 51 65 61 58 56 52 42 44 67 72 38 69 43 52 38 79 47 51 53 56 57 60 59 62 65 65 67 66 82 78
25 29 44 35 39 23 32 43 68 52 53 42 32 66 60 76 19 62 61 53 51 64 75 58 46 35 42 38 40 41 44 45 61 50 47 71 53 56 73 63 66 65 66 74 65 74 72 57 64
27 32 33 41 28 21 24 51 38 61 70 43 51 66 45 58 63 41 57 47 55 55 61 64 65 37 40 45 41 47 44 72 56 51 57 54 68 61 62 66 65 65 93 72 68 61 68 59 75
31 35 30 27 22 27 37 20 28 36 53 67 63 62 49 79 67 53 65 55 55 58 53 49 38 54 48 41 42 45 45 49 49 54 56 58 64 66 71 88 74 77 78 74 63 72 67 80 81
31 31 42 37 19 32 40 39 26 52 50 49 72 74 53 71 66 67 72 60 66 73 65 44 62 43 45 43 44 44 47 50 62 55 56 60 65 74 88 84 76 62 77 73 81 81 82 83 88
32 31 28 40 19 23 45 41 34 38 49 40 55 62 36 60 68 70 76 74 64 50 44 62 44 50 50 47 46 51 49 52 58 66 63 64 67 61 89 87 70 84 79 82 83 82 84 88 88
30 27 27 33 21 44 31 40 31 33 31 39 50 72 64 43 42 42 65 79 70 57 49 46 50 50 49 49 51 51 49 56 57 63 66 65 71 79 79 85 82 84 82 83 84 90 92 94 95
26 26 39 36 27 35 37 45 45 37 31 34 47 53 38 44 51 53 52 50 54 52 50 48 51 68 85 65 57 53 55 60 61 80 62 72 83 72 75 88 83 81 85 86 89 86 97 99 94
26 28 25 24 30 27 31 35 34 30 37 46 47 53 54 48 69 41 67 43 47 44 45 63 53 57 59 80 61 59 60 65 72 67 79 84 80 83 84 84 84 86 85 90 90 91 95 94 99
31 23 24 30 26 27 29 32 38 37 48 49 64 60 58 55 56 43 44 43 44 43 49 50 52 56 58 59 63 64 68 77 86 72 82 74 81 80 85 82 82 88 92 90 89 98 102 104 109
31 29 29 31 27 28 32 39 37 35 33 35 42 50 42 46 46 42 45 61 48 51 50 51 55 57 58 65 65 70 78 84 67 79 80 85 81 84 83 88 85 89 91 93 101 102 90 94 100
24 27 29 32 31 29 34 40 26 36 40 43 43 41 45 52 50 48 44 49 52 53 51 53 56 58 63 73 80 74 82 73 72 75 75 80 79 87 87 89 93 92 101 95 93 98 112 104 95
16 18 17 27 30 32 35 33 40 30 34 52 39 40 49 51 49 44 46 48 52 59 53 56 55 53 75 86 66 71 74 75 74 67 76 70 86 91 94 93 96 100 104 87 92 90 92 93 94
18 18 22 26 31 37 37 29 40 31 38 34 46 49 47 49 47 49 46 48 51 52 50 57 69 61 80 68 72 71 73 73 60 71 68 86 84 96 95 89 87 82 86 85 86 87 86 89 91
16 19 22 24 22 26 33 33 33 35 45 39 47 48 48 51 50 48 51 61 71 58 68 71 69 67 69 71 74 75 70 61 70 81 85 87 82 77 76 78 80 80 81 79 81 84 87 90 93
14 17 22 24 25 24 33 33 40 44 38 47 51 40 47 48 48 47 47 49 59 64 60 61 64 65 64 60 60 55 69 55 57 62 66 67 71 74 76 76 75 75 77 79 83 85 89 89 90
13 14 16 22 27 27 31 37 45 37 44 44 39 43 51 45 48 47 41 40 44 39 44 51 56 58 54 56 53 55 55 54 57 60 63 66 69 70 70 71 74 76 79 83 87 88 90 92 94
11 17 18 23 25 25 27 33 40 40 44 44 42 36 32 36 38 39 38 38 36 36 39 42 42 49 50 50 50 53 54 56 58 60 62 62 65 68 71 73 76 78 83 86 89 86 86 92 95
8 14 18 24 23 20 22 24 30 35 31 33 34 36 36 31 34 40 40 38 37 36 36 40 42 49 47 49 51 51 55 56 56 59 61 63 66 72 72 77 81 84 84 84 85 88 92 93 96
14 17 19 22 22 21 22 22 23 28 30 31 32 32 34 34 30 32 33 32 39 35 40 45 46 43 51 49 46 47 50 57 58 57 59 67 70 73 76 81 79 77 83 85 87 89 91 96 99
14 17 22 22 22 18 20 20 21 26 29 31 31 32 35 35 31 30 31 34 36 43 40 43 37 39 46 44 49 51 54 54 58 62 64 70 73 74 77 75 78 82 84 87 92 94 97 91 95
17 17 19 18 19 19 21 25 30 30 32 33 30 30 31 40 36 35 52 35 35 39 38 35 49 41 47 48 49 49 52 54 59 63 69 72 74 72 77 80 82 85 82 93 97 97 93 95 100
19 19 17 16 18 21 22 26 28 25 26 24 27 30 32 35 43 44 45 46 30 36 33 42 44 47 48 47 49 51 55 59 63 68 70 67 71 76 79 84 87 90 95 96 97 94 95 99 105
23 25 22 21 20 17 19 25 27 25 27 26 30 31 32 32 31 32 29 28 32 33 41 45 46 46 47 49 52 55 59 62 65 66 69 72 75 80 84 87 92 94 96 97 96 97 100 105 107
27 25 25 24 22 22 22 25 27 29 29 28 35 33 32 32 31 28 28 32 34 40 41 41 44 47 49 52 56 60 62 62 64 68 70 76 79 81 89 92 93 94 98 98 98 103 102 104 108
Wind_Direction
262 259 255 258 245 247 251 247 247 246 245 254 253 243 254 244 259 248 255 256 256 259 261 260 263 262 267 269 272 273 285 288 285 282 281 281 289 288 288 289 287 285 282 284 282 287 285 284 286
250 264 259 259 246 257 251 252 241 248 246 241 247 250 244 250 254 257 253 257 260 251 258 259 261 263 273 264 272 283 281 289 283 286 279 275 279 279 283 288 282 287 279 279 284 280 287 287 284
262 252 247 257 271 239 268 236 254 240 247 245 245 246 248 239 253 250 246 251 254 251 262 262 259 266 269 270 273 277 279 284 285 280 277 277 283 286 295 286 285 275 292 284 275 291 281 283 286
250 271 243 242 268 236 251 244 259 245 250 237 247 240 242 246 249 248 252 245 257 258 260 261 263 263 279 270 272 276 282 286 283 276 296 284 283 279 274 285 280 282 280 278 282 273 279 278 283
253 262 250 248 264 247 239 244 253 247 249 251 253 252 240 249 251 249 250 256 256 260 269 260 265 275 280 283 271 274 281 281 281 295 292 286 279 288 283 293 277 273 280 286 276 275 271 275 277
241 233 266 246 243 236 246 252 239 226 234 246 246 246 234 239 245 247 250 251 254 258 264 267 273 273 281 275 273 285 278 281 289 294 284 292 282 282 285 284 286 279 278 288 290 277 277 294 290
232 231 245 236 249 241 237 237 232 244 237 252 243 252 238 233 277 248 248 252 255 258 258 265 272 272 274 280 275 288 282 282 294 288 290 290 284 285 298 295 293 282 282 297 286 293 285 289 287
222 228 228 238 236 242 226 237 224 248 250 253 259 241 256 253 250 259 259 249 259 259 258 267 273 273 276 288 283 283 290 284 298 294 298 292 290 289 290 293 292 281 297 285 284 282 286 291 292
216 242 225 226 216 223 234 205 219 215 232 239 245 247 253 238 239 256 254 258 259 264 265 265 266 271 269 272 275 285 282 295 287 293 290 294 299 298 297 292 296 296 294 294 288 291 286 292 297
209 224 223 228 218 226 233 232 182 224 244 213 237 235 251 245 251 251 246 258 259 257 263 275 267 267 277 279 282 284 292 294 295 293 294 297 299 301 300 293 294 294 290 282 290 293 297 293 292
213 221 221 230 209 195 228 247 239 202 220 231 249 251 231 252 248 250 245 251 256 266 272 269 279 277 281 286 290 299 292 296 298 301 298 296 297 292 288 290 285 289 286 294 291 287 296 291 297
207 219 232 242 183 236 237 245 193 248 237 234 253 237 249 242 208 228 253 246 254 259 268 274 279 283 288 291 292 295 294 293 293 295 296 295 297 294 281 279 285 283 282 293 283 287 293 291 289
203 207 242 241 181 232 241 246 246 229 195 240 248 231 202 227 256 255 254 266 259 267 273 280 286 261 271 288 291 290 291 292 294 300 294 291 290 280 288 282 288 282 291 291 292 295 290 287 294
192 205 205 189 209 193 201 202 243 204 192 230 250 252 252 257 246 256 255 239 263 265 272 278 281 286 290 282 292 293 291 294 297 292 295 294 281 272 282 282 284 289 292 287 293 298 297 298 297
194 202 194 198 202 203 229 196 227 182 240 250 241 249 253 219 234 250 255 263 261 263 269 276 278 283 287 285 287 290 295 295 295 284 270 269 278 288 273 288 292 287 289 293 297 296 294 296 297
199 199 218 202 197 199 206 189 189 187 199 213 242 217 245 250 252 252 258 253 265 264 268 270 275 279 284 287 289 292 292 292 280 274 269 270 280 280 286 282 292 292 293 293 290 292 297 298 297
200 182 191 194 194 198 207 198 182 191 216 206 214 233 228 242 253 260 254 265 262 265 269 270 276 283 286 288 286 281 285 281 279 283 280 285 284 281 285 289 287 290 288 291 295 295 293 294 294
200 199 222 203 199 203 215 211 208 205 213 210 218 261 241 251 259 260 261 263 267 271 276 283 283 279 289 285 274 279 280 283 278 283 286 292 285 285 283 286 286 287 287 293 292 292 292 294 296
206 207 247 212 214 205 212 213 221 197 212 272 239 248 260 258 266 266 265 271 275 281 277 282 284 282 284 271 270 275 277 267 292 284 293 280 287 284 281 283 286 288 287 289 290 295 296 295 294
217 218 234 208 252 252 219 231 262 226 246 281 254 262 263 264 263 265 268 258 270 279 280 280 272 264 265 267 271 274 272 287 289 274 275 277 280 285 287 286 286 289 292 295 295 294 293 294 293
221 206 228 234 210 231 241 267 235 241 234 240 264 234 252 251 265 266 269 273 278 278 258 260 263 266 268 272 272 275 287 277 279 276 279 282 282 284 286 289 292 294 294 293 291 292 292 292 293
235 222 218 225 218 221 226 230 250 236 239 239 240 252 265 253 268 265 257 253 262 258 256 258 260 264 265 267 269 271 275 277 278 279 280 282 284 286 289 290 291 293 292 294 294 296 296 296 297
250 233 235 226 227 226 226 225 232 234 237 246 249 239 232 238 245 256 260 261 261 264 265 267 268 267 270 271 274 276 277 277 283 285 285 287 289 289 289 294 294 295 296 296 296 295 295 297 299
256 252 239 232 230 232 237 229 226 235 235 238 240 243 245 241 253 259 264 269 274 274 270 271 273 275 273 274 276 280 283 285 285 288 290 292 290 289 295 297 297 297 297 295 295 295 298 298 298
232 228 234 229 236 232 236 234 236 239 240 238 244 252 259 259 251 252 258 263 272 273 273 275 275 268 271 273 279 279 281 288 287 289 293 289 294 295 299 297 299 298 297 297 297 297 298 297 297
231 222 223 233 230 233 239 244 238 239 243 243 249 256 263 268 268 259 261 262 257 264 269 272 262 263 265 275 278 282 283 286 289 293 296 294 297 296 296 297 296 296 297 299 300 300 299 305 302
253 241 239 242 241 244 244 241 243 247 248 253 251 254 262 276 271 267 284 266 256 260 263 256 270 263 275 277 281 285 286 292 294 293 294 295 295 297 298 297 298 300 301 302 302 303 306 303 303
267 262 256 255 248 244 241 251 257 257 257 259 255 259 261 261 276 276 276 279 263 261 256 262 268 270 278 285 287 292 294 294 294 293 295 298 296 296 299 302 303 304 303 303 307 309 308 305 307
261 264 256 253 252 248 244 252 261 261 259 260 261 263 260 263 263 262 263 260 261 263 268 271 278 284 287 291 294 292 294 295 296 295 295 296 300 304 304 304 303 304 304 309 310 309 308 308 308
276 266 261 257 255 250 247 253 260 263 267 271 265 259 262 264 264 267 269 270 271 270 275 280 283 289 292 290 294 296 294 292 293 297 300 304 304 304 305 304 306 309 311 312 309 310 311 310 314